EHI
2 2 1 0 0 0 0 0 0 0 0 0 0 0 0 0 0 0 0 0 0 0 1 2 4 2 1 1 3 4 2 1 0 0 0 0 0 0 0 0 0 0 0 0 0 0 0 1 0
1 1 0 0 0 0 0 0 0 0 0 0 0 0 0 0 0 0 0 0 0 0 0 1 2 1 1 1 3 3 3 2 1 0 0 0 0 0 0 0 0 0 0 0 0 0 0 1 1
0 0 0 0 0 0 0 0 0 0 0 0 0 0 0 0 0 0 0 0 0 0 0 0 0 1 1 2 2 3 3 3 2 0 0 0 0 0 0 0 0 0 0 0 0 0 0 0 0
0 0 0 0 0 0 0 0 0 0 0 0 0 0 0 0 0 0 0 0 0 0 0 0 0 0 1 2 2 3 3 3 1 0 0 0 0 0 0 0 0 0 0 0 0 0 0 0 0
0 0 0 0 0 0 0 0 0 0 0 1 1 1 0 0 0 0 0 0 0 0 0 0 0 0 1 2 2 3 3 2 1 0 0 0 0 0 1 1 1 1 0 0 0 0 0 0 0
0 0 0 0 0 0 0 0 1 1 2 2 2 2 1 0 0 0 0 0 0 0 0 0 0 0 0 1 2 2 2 2 1 0 0 0 0 0 1 1 1 0 0 0 0 0 0 0 0
0 0 0 0 0 0 0 0 1 2 3 3 3 3 2 0 0 0 0 0 0 0 0 0 0 0 0 1 2 2 2 1 1 0 0 0 0 0 1 1 0 0 0 0 0 1 1 0 0
0 0 0 0 0 0 0 0 0 1 2 3 3 2 1 1 0 0 0 0 0 0 0 0 0 0 0 0 1 2 1 1 0 0 0 0 0 0 0 0 0 0 0 0 0 1 1 1 1
0 0 0 0 0 0 0 0 0 1 2 2 2 2 2 2 1 0 0 0 0 0 0 0 0 0 0 0 0 1 1 0 0 0 0 0 0 0 0 0 0 0 0 0 1 1 1 1 2
0 0 0 0 0 0 0 0 0 1 2 2 3 4 4 4 1 0 0 0 0 0 0 0 0 0 0 0 0 0 0 0 0 0 0 0 0 0 0 0 0 0 0 0 1 1 1 1 1
0 0 0 0 0 0 0 0 0 0 1 2 4 6 7 6 3 0 0 0 0 0 0 0 0 0 0 0 0 0 0 0 0 0 0 0 0 0 0 0 0 0 0 0 1 1 0 0 0
0 0 0 0 0 1 1 1 0 0 0 1 4 7 8 8 4 1 0 0 0 0 0 0 0 0 0 0 0 0 0 0 0 0 0 0 0 0 0 0 0 0 0 0 0 0 0 0 0
0 1 1 1 1 2 2 2 1 2 2 3 5 7 8 8 5 1 0 0 0 0 0 0 0 0 0 0 0 0 0 0 0 0 0 0 0 0 0 0 0 0 0 0 0 0 0 0 0
1 1 2 2 2 2 2 1 2 3 4 4 5 7 7 7 5 2 1 0 0 0 0 0 0 0 0 1 1 0 0 0 0 0 0 0 0 0 0 0 0 0 0 0 0 0 0 0 0
0 1 1 1 1 1 1 0 1 4 5 5 4 5 7 7 6 4 2 1 0 1 1 1 0 0 0 1 1 0 0 0 0 0 0 0 0 0 0 0 0 0 0 0 0 0 0 0 0
0 0 0 0 0 0 0 0 2 4 6 5 4 5 7 7 5 3 2 2 2 2 2 2 1 0 0 1 1 0 0 0 0 0 0 0 0 0 0 0 0 0 0 0 0 0 0 0 0
0 0 0 0 0 0 0 1 3 4 4 5 6 7 7 7 6 4 3 3 3 3 4 4 2 1 0 0 0 0 0 0 0 0 0 0 0 0 0 0 0 0 0 0 0 0 0 0 0
0 0 0 0 0 0 0 1 3 4 3 4 6 7 8 9 9 7 5 4 3 3 4 4 3 1 0 0 0 0 0 0 0 0 0 0 0 0 1 1 1 0 0 0 0 0 0 0 0
0 0 0 0 0 0 0 1 3 4 3 4 5 6 8 10 10 9 7 5 4 3 2 2 2 1 1 1 1 0 0 0 0 0 0 0 0 1 2 2 1 0 0 0 0 0 0 0 0
0 0 0 0 0 0 0 0 2 3 3 3 3 4 7 9 11 11 9 7 5 4 3 2 2 3 3 2 1 0 0 0 0 0 0 0 1 3 4 3 1 0 0 0 0 0 0 0 0
0 0 0 0 0 0 0 0 0 1 1 1 1 2 5 9 11 12 11 9 7 6 4 4 5 6 5 3 1 1 0 0 0 0 0 0 2 4 4 2 1 0 0 0 0 1 1 1 0
0 0 0 0 0 0 0 0 0 0 0 0 0 1 4 8 10 11 11 10 9 8 6 5 7 8 7 4 2 1 0 0 0 0 0 0 1 2 2 2 0 0 0 0 0 1 2 2 1
0 0 0 0 0 0 0 0 0 0 0 0 0 0 2 5 8 9 11 11 11 10 9 8 8 9 8 5 3 1 0 0 0 0 0 0 0 0 1 2 1 0 0 0 0 1 1 1 0
0 0 0 0 0 0 0 0 0 0 0 0 0 0 2 4 6 9 11 13 13 12 12 12 12 11 9 6 3 2 1 0 0 0 0 0 0 0 1 2 2 1 1 0 1 1 1 0 0
0 0 0 0 0 0 0 0 0 0 0 0 0 1 3 5 6 8 11 15 17 16 15 15 15 14 12 9 6 5 3 2 1 0 0 0 0 0 0 1 3 3 2 2 2 3 2 1 1
0 0 0 0 0 0 0 0 0 0 0 0 0 2 4 6 6 8 10 15 18 19 18 18 18 17 16 15 11 8 6 6 5 3 1 0 0 0 0 1 4 4 3 3 4 5 4 4 4
0 0 0 0 0 0 0 0 0 0 0 1 2 3 4 5 5 7 9 12 14 16 18 18 19 18 17 17 16 13 10 9 8 6 3 1 0 0 0 1 4 6 6 6 6 6 6 6 5
0 0 0 0 0 0 0 0 0 0 1 3 4 4 4 3 4 6 7 8 9 10 13 15 17 17 17 18 19 18 16 14 11 7 5 2 1 0 0 1 4 7 10 10 9 7 7 6 5
0 0 0 0 0 0 0 0 0 0 1 3 4 4 2 2 3 5 8 9 9 10 12 14 15 17 19 19 20 21 21 18 14 9 6 4 2 1 1 2 4 7 11 12 12 10 8 7 7
0 0 0 0 0 0 0 0 0 0 0 2 4 4 1 1 2 6 10 12 13 14 14 15 16 19 21 21 21 22 22 20 17 12 8 5 3 2 2 3 5 8 10 12 13 13 11 9 7
Wind_Speed
4 3 2 1 4 5 3 2 1 2 3 3 5 5 6 4 2 3 2 6 8 7 5 9 13 13 13 13 13 14 15 14 14 14 13 13 12 12 12 12 11 11 11 11 11 10 10 10 10
3 3 1 3 5 4 3 2 2 2 4 4 5 5 6 5 4 6 4 6 9 7 5 7 13 13 13 12 13 13 14 14 13 13 12 12 12 11 11 11 11 10 10 10 9 9 9 9 9
3 2 2 4 4 3 1 0 3 5 4 3 4 5 4 4 4 4 4 9 8 6 5 7 13 13 12 12 12 12 13 12 12 12 12 11 11 10 10 10 10 9 9 9 9 8 8 8 8
1 2 3 5 3 0 2 2 5 5 4 5 5 5 4 4 3 5 8 9 8 6 4 7 12 12 12 11 11 11 12 11 11 11 10 10 9 9 9 9 8 8 8 8 8 7 7 7 6
2 3 6 4 3 2 2 3 4 4 3 5 5 5 4 4 7 9 9 9 8 5 4 5 11 11 11 10 10 10 10 10 10 9 9 9 8 8 7 7 7 6 6 6 6 6 6 5 4
3 4 5 2 2 2 2 2 4 6 5 5 5 4 3 3 7 8 7 7 6 6 4 4 10 10 10 10 10 9 9 9 8 8 8 8 7 6 6 6 5 5 5 4 4 4 4 3 3
3 4 3 1 1 1 2 2 3 4 5 4 4 5 3 3 5 6 6 5 5 5 4 3 4 6 8 8 8 8 8 8 7 7 6 6 6 5 5 4 4 3 3 3 3 3 2 2 2
3 4 2 1 1 1 2 3 3 4 5 4 4 6 5 6 7 7 6 5 4 4 4 3 3 2 3 3 7 7 7 7 6 6 5 5 5 4 4 3 2 2 1 1 2 1 1 0 1
2 5 1 3 3 2 3 4 3 4 5 3 3 4 6 11 10 8 5 3 3 4 3 3 2 2 2 2 4 5 5 5 4 3 4 3 2 2 1 1 1 1 1 1 1 1 1 1 1
4 3 3 3 4 4 4 4 5 4 4 4 5 7 11 12 10 9 7 6 5 5 3 3 2 2 2 2 1 1 1 1 1 1 1 1 1 1 1 1 1 1 1 2 2 3 3 2 1
3 3 2 0 3 5 5 4 4 6 3 5 9 12 13 11 10 8 7 6 5 4 4 4 3 2 2 1 1 1 1 1 1 1 1 1 1 1 1 1 2 2 2 2 3 3 2 1 0
2 2 2 1 2 4 5 5 4 3 3 6 11 14 13 12 11 9 8 6 5 4 4 3 3 2 2 1 1 1 1 1 1 1 1 1 0 0 1 1 1 1 1 2 2 1 2 1 1
1 1 1 3 4 5 6 5 4 2 4 9 11 12 12 11 9 7 6 5 5 5 5 4 4 3 2 2 1 2 2 1 1 1 1 2 1 1 0 1 1 1 1 1 1 1 2 2 1
1 2 3 3 3 3 6 4 4 2 7 10 11 10 9 9 9 7 6 6 6 6 6 5 5 4 3 2 2 2 2 1 1 1 2 2 2 1 1 1 1 1 1 1 1 1 1 1 1
3 4 4 2 2 2 5 3 1 4 8 9 9 8 8 7 7 8 8 8 7 6 6 5 5 4 4 3 3 2 1 1 1 1 2 2 2 2 1 1 1 2 1 1 1 1 1 1 1
3 4 2 2 1 2 5 1 2 6 8 8 8 8 8 7 7 7 7 7 6 6 6 6 6 5 5 3 3 1 1 2 2 2 1 2 2 2 2 1 2 1 1 0 1 0 0 1 1
4 2 1 2 1 2 3 3 3 6 7 7 8 8 7 6 6 7 7 8 7 7 7 6 5 5 5 4 2 2 1 2 2 2 2 2 3 3 2 1 2 1 0 0 1 0 0 1 1
2 1 1 2 2 2 2 2 3 6 7 7 7 7 7 8 9 7 7 7 7 6 6 6 5 5 4 3 2 1 0 1 1 2 2 3 2 3 2 2 2 1 0 0 1 1 0 1 1
3 2 1 3 2 2 2 3 4 6 6 7 7 7 8 8 6 5 6 7 7 6 6 6 6 5 4 3 2 2 2 1 1 2 2 3 3 3 3 2 1 1 1 1 1 0 0 1 0
3 2 1 2 1 2 1 4 3 6 8 8 9 9 9 7 5 6 6 7 7 7 7 6 6 5 5 4 3 2 2 1 1 1 1 2 3 3 3 3 2 1 1 1 1 1 0 0 0
1 4 4 2 2 3 2 5 3 2 4 5 6 7 7 10 10 8 8 8 7 8 8 8 7 6 5 4 2 2 1 1 0 1 1 2 2 2 2 3 2 2 2 1 2 1 1 1 0
3 4 4 3 2 1 1 3 6 3 3 5 6 6 8 9 9 9 9 9 9 9 8 7 6 6 5 5 4 4 3 3 3 2 1 1 2 2 2 3 3 2 2 2 3 2 2 2 1
5 1 3 3 3 2 2 1 7 2 4 7 7 7 8 9 10 10 11 11 10 8 7 6 5 5 5 5 6 5 3 3 2 1 2 2 1 2 2 2 2 3 2 3 3 2 2 2 2
4 7 7 6 5 1 2 2 7 4 6 6 6 6 7 8 9 9 8 7 7 6 6 6 6 5 5 5 5 5 5 4 2 2 2 2 1 1 2 2 3 3 3 3 3 3 3 3 2
5 6 4 5 4 4 2 2 8 6 5 6 6 6 6 6 7 7 7 8 8 8 8 7 7 6 6 6 6 5 5 5 5 4 3 3 2 2 3 3 3 3 4 4 3 3 3 3 3
4 8 8 5 4 4 1 4 7 5 3 3 2 2 4 5 6 8 8 8 8 8 8 7 7 7 6 6 6 5 5 4 3 4 4 3 3 3 3 3 3 3 4 4 3 3 3 3 3
5 3 5 7 2 0 4 5 7 3 4 3 1 2 3 4 5 6 6 7 7 7 8 8 8 6 6 6 5 5 5 5 4 4 4 3 3 3 3 3 3 3 3 3 3 2 3 2 3
5 8 6 6 5 2 4 3 5 5 4 3 1 1 2 2 3 4 5 5 6 6 6 6 6 7 7 6 6 6 5 5 5 4 4 4 4 3 3 3 3 3 3 3 3 3 3 3 3
3 4 6 4 5 6 3 7 6 6 5 3 3 2 2 3 4 4 4 4 4 4 5 5 6 5 5 5 5 5 4 5 4 4 5 4 4 4 4 4 3 3 3 3 4 4 4 4 4
4 5 7 5 3 4 4 8 4 3 3 3 3 1 2 3 3 4 3 4 4 5 5 5 5 5 4 4 4 5 4 4 4 4 4 4 4 4 4 4 3 4 4 3 4 5 5 5 6
Wind_Direction
183 162 157 78 54 48 35 11 93 91 69 57 75 74 86 70 86 123 111 127 124 128 127 126 123 118 115 113 112 112 112 113 113 113 113 112 112 111 110 110 112 111 111 110 110 109 110 110 109
155 167 132 57 72 61 1 356 76 93 130 120 77 67 69 63 61 102 118 130 127 127 122 127 127 122 119 117 116 116 116 116 116 116 115 114 113 112 110 110 111 109 110 110 111 110 112 111 108
177 189 76 64 76 124 159 73 105 101 100 81 75 58 64 79 100 115 132 128 118 118 119 134 130 127 124 122 120 119 119 118 117 116 115 115 113 112 110 110 112 111 111 113 113 112 112 111 111
151 55 51 63 60 167 164 150 129 117 70 56 87 71 59 64 110 123 128 126 120 117 122 139 132 130 127 126 125 123 123 121 119 117 116 115 115 115 112 111 111 112 113 113 114 114 113 112 111
72 71 57 43 20 20 93 133 120 99 79 70 83 84 55 33 97 117 126 128 127 122 123 140 136 135 134 132 129 128 127 124 122 119 117 119 118 119 116 113 113 112 110 111 113 115 115 113 112
55 65 71 42 11 36 74 94 94 85 91 88 84 88 61 87 108 123 122 123 129 131 131 140 143 141 142 140 137 135 133 131 127 124 122 122 121 121 118 115 117 116 112 112 115 115 113 112 109
90 81 98 114 65 72 135 105 100 103 97 93 104 98 102 123 123 122 114 116 124 129 129 130 141 146 148 146 145 144 140 138 135 132 131 127 123 122 122 121 123 123 117 122 121 119 109 98 96
125 93 79 103 137 187 140 112 102 103 101 104 107 131 159 162 136 117 107 104 117 127 130 132 125 120 130 148 157 155 151 146 145 143 142 137 133 128 131 128 140 143 143 154 151 143 120 66 78
104 74 123 194 170 180 140 116 100 78 104 97 90 127 141 140 134 125 121 112 133 147 143 140 130 123 129 151 175 164 160 156 151 152 148 123 71 64 86 131 162 177 219 255 251 295 326 34 47
91 112 223 206 165 152 139 127 130 108 106 95 85 100 124 140 145 148 155 163 168 170 167 157 152 149 146 175 135 109 121 116 102 81 93 80 74 49 25 328 292 301 315 328 346 354 3 30 24
130 178 223 156 138 138 133 124 122 126 153 171 153 146 146 151 156 163 171 177 180 177 180 174 172 163 156 140 122 109 93 102 106 131 119 96 67 24 11 3 344 347 354 7 11 16 13 20 347
123 263 178 148 113 121 131 125 108 134 186 159 151 151 153 162 170 175 180 181 174 174 189 180 173 170 179 170 165 145 144 148 170 187 151 136 131 1 348 358 326 338 354 353 354 350 340 334 294
87 320 60 108 104 112 108 105 110 96 99 121 134 147 160 168 175 179 180 177 174 183 189 187 176 181 185 178 195 176 183 184 186 194 190 180 178 213 304 329 324 325 324 327 331 336 335 335 333
96 62 45 65 91 102 108 97 100 132 125 130 143 156 168 175 177 175 178 183 186 191 191 185 181 183 177 178 186 189 184 182 170 203 213 193 184 193 192 294 300 296 291 292 286 296 307 318 317
84 62 33 24 69 122 108 62 126 151 138 143 156 163 173 182 181 187 189 189 191 189 184 183 185 176 175 185 194 185 182 171 176 209 215 199 189 194 187 236 275 277 279 293 300 312 322 305 304
57 60 36 301 99 132 116 206 204 151 149 158 171 175 181 189 191 194 191 188 184 178 179 188 190 177 181 185 188 182 183 189 197 206 210 210 202 193 190 214 256 270 276 322 293 301 332 319 314
35 74 250 292 197 130 138 212 197 163 162 173 183 187 187 190 201 199 191 187 182 182 181 184 187 180 183 178 173 182 183 204 209 205 211 216 211 194 189 218 245 249 232 315 277 300 215 288 310
226 208 230 245 253 131 171 221 193 178 180 187 189 192 193 198 208 200 189 183 179 181 182 183 181 180 166 154 145 129 188 224 224 218 221 215 211 197 189 219 238 208 192 237 241 250 264 246 288
170 153 239 259 223 157 221 245 214 188 191 196 198 202 203 207 206 191 186 182 173 176 183 185 182 178 162 156 164 172 212 225 231 230 230 224 216 203 191 219 227 199 198 242 244 207 296 328 343
144 143 248 298 39 133 279 285 237 197 205 204 202 206 206 199 192 193 189 186 181 182 187 189 190 182 180 180 170 174 175 197 214 242 248 228 212 207 209 205 212 206 194 255 252 183 147 312 84
189 187 208 203 24 45 52 327 304 246 216 218 209 204 203 199 197 194 194 194 187 187 190 193 192 189 188 177 147 127 97 56 20 241 242 237 217 215 219 205 197 201 199 228 239 201 168 241 280
248 222 190 164 106 313 93 286 295 282 251 232 222 204 204 206 194 192 194 192 196 196 190 188 187 186 186 172 169 173 182 200 216 216 229 249 224 216 211 206 196 200 207 228 238 206 192 191 228
212 119 119 125 132 56 21 140 290 329 275 255 236 221 209 200 193 194 197 195 196 191 186 184 181 186 184 179 180 182 196 208 212 209 225 245 249 236 226 211 196 202 215 229 232 211 194 197 197
126 70 57 49 69 25 262 168 283 252 237 262 242 223 213 195 191 192 191 183 186 181 180 175 179 192 186 181 182 188 198 199 196 213 222 235 239 241 232 212 206 212 221 229 229 218 200 205 201
93 90 43 11 16 257 264 174 254 261 243 245 245 224 208 184 180 179 174 179 183 181 183 180 182 196 192 189 196 199 203 200 206 214 219 223 233 239 237 221 208 215 227 232 227 216 210 205 206
157 138 153 186 214 271 327 230 259 283 294 284 253 193 167 171 179 182 181 182 185 183 183 183 190 201 198 197 204 204 202 202 215 218 215 217 224 235 234 224 220 225 230 237 224 221 218 205 210
133 139 152 128 133 323 286 291 303 335 350 350 3 99 155 172 180 181 175 174 180 183 187 187 189 199 207 207 203 208 209 211 216 217 218 225 229 236 233 227 228 227 229 230 216 225 231 213 216
117 138 100 113 140 228 288 274 255 281 287 306 303 200 179 149 156 165 170 176 178 184 185 184 183 196 208 211 209 217 214 218 218 213 225 229 229 230 229 234 235 233 230 225 215 223 229 219 230
98 87 100 106 143 153 225 264 230 223 234 242 257 240 181 164 166 168 175 174 167 169 177 186 192 196 197 206 211 218 216 216 214 218 228 230 231 224 224 228 232 234 233 225 216 227 227 226 237
139 148 142 144 193 164 175 261 277 220 226 220 236 230 164 158 153 153 154 149 153 162 169 183 190 195 201 199 199 210 213 207 213 226 232 227 228 227 224 221 226 232 233 227 225 234 232 229 238